When you browse on this site, cookies collect data to enhance your experience and personalize the content and advertising you see.
Visit our Privacy Policy to learn more. By continuing to use the site, you agree to this use of cookies and data.
  • en Suisse
  • Liste des pays
  • À 7 jours
  • Température de l'eau
  • Carte satellitaire
  • Carte météo
  • Widgets météo
  • user-avatar
    Se connecter

    Météo par heure à Nakourou

    Ce jour, 24 Juin, Lundi

    Heure Température Précipitation Vent Pression Humidité
    00:00 +15°C° 0.8 mm 0 m/s 605 mmHg 91%
    01:00 +16°C° 0.8 mm 1 m/s 605 mmHg 92%
    02:00 +16°C° 0 mm 1 m/s 604 mmHg 92%
    03:00 +16°C° 3.2 mm 1 m/s 605 mmHg 94%
    04:00 +16°C° 3.2 mm 1 m/s 605 mmHg 95%
    05:00 +15°C° 3.2 mm 1 m/s 605 mmHg 97%
    06:00 +16°C° 1.7 mm 1 m/s 605 mmHg 96%
    07:00 +16°C° 1.7 mm 1 m/s 605 mmHg 94%
    08:00 +16°C° 0 mm 2 m/s 606 mmHg 93%
    09:00 +18°C° 0.2 mm 2 m/s 606 mmHg 84%
    10:00 +21°C° 0.2 mm 1 m/s 607 mmHg 75%
    11:00 +23°C° 0.2 mm 1 m/s 607 mmHg 67%
    12:00 +23°C° 0.3 mm 1 m/s 607 mmHg 65%
    13:00 +24°C° 0.3 mm 2 m/s 606 mmHg 63%
    14:00 +24°C° 0.3 mm 2 m/s 606 mmHg 61%
    15:00 +23°C° 0.8 mm 2 m/s 605 mmHg 69%
    16:00 +22°C° 0.8 mm 1 m/s 605 mmHg 77%
    17:00 +21°C° 0.8 mm 1 m/s 604 mmHg 85%
    18:00 +20°C° 0.6 mm 1 m/s 605 mmHg 86%
    19:00 +18°C° 0.6 mm 1 m/s 605 mmHg 88%
    20:00 +15°C° 0.6 mm 0 m/s 605 mmHg 90%
    21:00 +16°C° 0.1 mm 1 m/s 605 mmHg 90%
    22:00 +16°C° 0.1 mm 1 m/s 605 mmHg 90%
    23:00 +16°C° 0.1 mm 1 m/s 605 mmHg 90%

    Demain, 25 Juin, Mardi

    Heure Température Précipitation Vent Pression Humidité
    00:00 +15°C° 0 mm 1 m/s 604 mmHg 90%
    01:00 +15°C° 0 mm 1 m/s 604 mmHg 90%
    02:00 +15°C° 0 mm 1 m/s 603 mmHg 90%
    03:00 +14°C° 0 mm 1 m/s 603 mmHg 89%
    04:00 +14°C° 0 mm 1 m/s 604 mmHg 89%
    05:00 +14°C° 0 mm 1 m/s 604 mmHg 88%
    06:00 +16°C° 0 mm 1 m/s 605 mmHg 85%
    07:00 +16°C° 0 mm 0 m/s 606 mmHg 82%
    08:00 +18°C° 0 mm 0 m/s 607 mmHg 79%
    09:00 +19°C° 0.3 mm 0 m/s 607 mmHg 76%
    10:00 +22°C° 0.3 mm 1 m/s 607 mmHg 72%
    11:00 +23°C° 0.3 mm 1 m/s 607 mmHg 69%
    12:00 +23°C° 0.7 mm 1 m/s 606 mmHg 70%
    13:00 +23°C° 0.7 mm 2 m/s 606 mmHg 71%
    14:00 +23°C° 0.7 mm 2 m/s 605 mmHg 72%
    15:00 +21°C° 1.4 mm 2 m/s 605 mmHg 77%
    16:00 +21°C° 1.4 mm 1 m/s 605 mmHg 82%
    17:00 +20°C° 1.4 mm 1 m/s 604 mmHg 88%
    18:00 +19°C° 0.9 mm 1 m/s 604 mmHg 90%
    19:00 +18°C° 0.9 mm 1 m/s 605 mmHg 91%
    20:00 +18°C° 0.9 mm 1 m/s 605 mmHg 93%
    21:00 +18°C° 0.7 mm 1 m/s 605 mmHg 93%
    22:00 +16°C° 0.7 mm 1 m/s 605 mmHg 93%
    23:00 +16°C° 0.7 mm 1 m/s 605 mmHg 93%

    Après-demain, 26 Juin, Mercredi

    Heure Température Précipitation Vent Pression Humidité
    00:00 +16°C° 0.3 mm 1 m/s 605 mmHg 94%
    01:00 +15°C° 0.3 mm 0 m/s 605 mmHg 94%
    02:00 +15°C° 0.3 mm 0 m/s 604 mmHg 95%
    03:00 +15°C° 0.2 mm 0 m/s 605 mmHg 95%
    04:00 +16°C° 0.2 mm 1 m/s 605 mmHg 94%
    05:00 +16°C° 0.2 mm 1 m/s 605 mmHg 94%
    06:00 +18°C° 0 mm 1 m/s 606 mmHg 92%
    07:00 +18°C° 0 mm 1 m/s 606 mmHg 89%
    08:00 +19°C° 0 mm 1 m/s 607 mmHg 87%
    09:00 +20°C° 0.5 mm 1 m/s 607 mmHg 82%
    10:00 +22°C° 0.5 mm 1 m/s 608 mmHg 78%
    11:00 +23°C° 0.5 mm 1 m/s 608 mmHg 74%
    12:00 +23°C° 1.1 mm 2 m/s 607 mmHg 75%
    13:00 +23°C° 1.1 mm 2 m/s 607 mmHg 76%
    14:00 +21°C° 1.1 mm 3 m/s 606 mmHg 77%
    15:00 +21°C° 1.3 mm 2 m/s 606 mmHg 81%
    16:00 +21°C° 1.3 mm 1 m/s 605 mmHg 84%
    17:00 +20°C° 1.3 mm 1 m/s 605 mmHg 88%
    18:00 +19°C° 0.3 mm 1 m/s 605 mmHg 89%
    19:00 +18°C° 0.3 mm 1 m/s 605 mmHg 90%
    20:00 +16°C° 0.3 mm 1 m/s 606 mmHg 91%
    21:00 +16°C° 0 mm 1 m/s 606 mmHg 92%
    22:00 +16°C° 0 mm 1 m/s 606 mmHg 92%
    23:00 +16°C° 0 mm 1 m/s 606 mmHg 92%

    27 Juin, Jeudi

    Heure Température Précipitation Vent Pression Humidité
    00:00 +15°C° 0 mm 1 m/s 605 mmHg 93%
    01:00 +15°C° 0 mm 1 m/s 604 mmHg 93%
    02:00 +15°C° 0 mm 1 m/s 604 mmHg 94%
    03:00 +14°C° 0 mm 1 m/s 604 mmHg 94%
    04:00 +14°C° 0 mm 1 m/s 604 mmHg 94%
    05:00 +14°C° 0 mm 1 m/s 604 mmHg 93%
    06:00 +15°C° 0 mm 1 m/s 605 mmHg 91%
    07:00 +18°C° 0 mm 1 m/s 606 mmHg 88%
    08:00 +19°C° 0 mm 1 m/s 607 mmHg 86%
    09:00 +20°C° 0.1 mm 1 m/s 607 mmHg 79%
    10:00 +22°C° 0.1 mm 1 m/s 607 mmHg 73%
    11:00 +23°C° 0.1 mm 1 m/s 608 mmHg 67%
    12:00 +23°C° 0.3 mm 2 m/s 607 mmHg 66%
    13:00 +23°C° 0.3 mm 2 m/s 607 mmHg 65%
    14:00 +24°C° 0.3 mm 3 m/s 606 mmHg 65%
    15:00 +23°C° 0.5 mm 2 m/s 606 mmHg 71%
    16:00 +22°C° 0.5 mm 1 m/s 606 mmHg 77%
    17:00 +21°C° 0.5 mm 1 m/s 606 mmHg 83%
    18:00 +19°C° 0.2 mm 1 m/s 605 mmHg 85%
    19:00 +18°C° 0.2 mm 1 m/s 605 mmHg 88%
    20:00 +15°C° 0.2 mm 1 m/s 605 mmHg 90%
    21:00 +15°C° 0.1 mm 1 m/s 605 mmHg 91%
    22:00 +15°C° 0.1 mm 1 m/s 605 mmHg 91%
    23:00 +15°C° 0.1 mm 1 m/s 605 mmHg 91%

    28 Juin, Vendredi

    Heure Température Précipitation Vent Pression Humidité
    00:00 +15°C° 0 mm 1 m/s 605 mmHg 92%
    01:00 +14°C° 0 mm 1 m/s 605 mmHg 92%
    02:00 +14°C° 0 mm 1 m/s 604 mmHg 93%
    03:00 +14°C° 0 mm 2 m/s 604 mmHg 93%
    04:00 +14°C° 0 mm 2 m/s 604 mmHg 93%
    05:00 +13°C° 0 mm 2 m/s 604 mmHg 93%
    06:00 +15°C° 0 mm 2 m/s 605 mmHg 90%
    07:00 +18°C° 0 mm 1 m/s 606 mmHg 87%
    08:00 +19°C° 0 mm 1 m/s 607 mmHg 84%
    09:00 +20°C° 0.1 mm 1 m/s 607 mmHg 78%
    10:00 +21°C° 0.1 mm 2 m/s 607 mmHg 73%
    11:00 +23°C° 0.1 mm 2 m/s 608 mmHg 67%
    12:00 +23°C° 0.5 mm 2 m/s 607 mmHg 68%
    13:00 +23°C° 0.5 mm 2 m/s 606 mmHg 68%
    14:00 +24°C° 0.5 mm 2 m/s 606 mmHg 69%
    15:00 +21°C° 1.1 mm 2 m/s 606 mmHg 75%
    16:00 +20°C° 1.1 mm 2 m/s 605 mmHg 81%
    17:00 +19°C° 1.1 mm 2 m/s 605 mmHg 87%
    18:00 +18°C° 0.3 mm 2 m/s 605 mmHg 88%
    19:00 +17°C° 0.3 mm 2 m/s 605 mmHg 90%
    20:00 +16°C° 0.3 mm 1 m/s 605 mmHg 91%
    21:00 +15°C° 0.1 mm 1 m/s 605 mmHg 91%
    22:00 +15°C° 0.1 mm 1 m/s 605 mmHg 91%
    23:00 +15°C° 0.1 mm 1 m/s 605 mmHg 90%

    29 Juin, Samedi

    Heure Température Précipitation Vent Pression Humidité
    00:00 +14°C° 0.1 mm 1 m/s 605 mmHg 90%
    01:00 +14°C° 0.1 mm 1 m/s 604 mmHg 90%
    02:00 +14°C° 0.1 mm 1 m/s 604 mmHg 90%
    03:00 +14°C° 0 mm 1 m/s 604 mmHg 90%
    04:00 +14°C° 0 mm 1 m/s 604 mmHg 90%
    05:00 +14°C° 0 mm 1 m/s 605 mmHg 90%
    06:00 +15°C° 0 mm 1 m/s 605 mmHg 87%
    07:00 +16°C° 0 mm 1 m/s 606 mmHg 84%
    08:00 +18°C° 0 mm 2 m/s 607 mmHg 81%
    09:00 +20°C° 0.1 mm 1 m/s 607 mmHg 77%
    10:00 +21°C° 0.1 mm 1 m/s 608 mmHg 73%
    11:00 +23°C° 0.1 mm 1 m/s 608 mmHg 69%
    12:00 +23°C° 0.9 mm 1 m/s 607 mmHg 70%
    13:00 +23°C° 0.9 mm 1 m/s 607 mmHg 72%
    14:00 +23°C° 0.9 mm 1 m/s 606 mmHg 73%
    15:00 +22°C° 1.6 mm 1 m/s 606 mmHg 78%
    16:00 +21°C° 1.6 mm 1 m/s 606 mmHg 83%
    17:00 +20°C° 1.6 mm 1 m/s 605 mmHg 88%
    18:00 +19°C° 0.8 mm 1 m/s 605 mmHg 89%
    19:00 +18°C° 0.8 mm 1 m/s 606 mmHg 90%
    20:00 +16°C° 0.8 mm 1 m/s 606 mmHg 91%
    21:00 +16°C° 0.1 mm 1 m/s 606 mmHg 90%
    22:00 +16°C° 0.1 mm 1 m/s 606 mmHg 89%
    23:00 +16°C° 0.1 mm 1 m/s 606 mmHg 88%
    Voir plus